11:34
Airports
History
Links
Donate
Help keep this website running!
PayPal
Bitcoin
This page is community maintained. The information is intended for PC simulator navigation or reference.
Always use approved charts for navigation.
EDNY
Friedrichshafen
Friedrichshafen (EDNY)
Friedrichshafen, Baden-Wurttemberg, Germany (88046)
(C)
Lat/Lng:47° 40' 16.74" N / 9° 30' 41.36" E
47.671317 / 9.511488
Elevation:1367'ft / 417mMSL
ID / ICAO:EDNY
Runways:1
Longest:06-24
Asphalt 2,350m / 7,709ft
Controlled:Yes
METAR11:20 GMT 2018-01-23
Altimeter: 30.36
Visibility: 6.2 statute miles
Wind: 3 knots (from 130°)
Temp: 6°c / 43°f
Humidity: 87.0%

METAR: EDNY 231120Z 13003KT 9999 SCT030 OVC042 06/04 Q1028

(Powered by phpweather)
Airport Radio Frequencies
ATIS: 129.6
Tower: 120.07, 124.35
Approach: 119.92
Nearby VORs <50NM
Nearby NDBs
Runway 06 / 24
Dimensions:2349.6 x 45.1m 7709' x 148'ft
Surface:Asphalt
Edge Lights:Medium intensity
Runway 06 [A]Runway 24 [B]
Heading:060°TH 240°TH
Lat:
Lng:
47° 39' 57.73"N
9° 29' 52.4"E
47° 40' 35.75"N
9° 31' 30.31"E
ALS:SSALFSSALF
TDZ:Yes, lighted
User Notes and Comments
47° 40' 16.74" N / 9° 30' 41.36" E
Distance To
Airport ID:
Nearby Airports
(C) St.Gallen-Altenrhein 13.0 NM
LSZR ( WX ) S 169°
4 Sitterdorf 16.1 NM
LSZV SW 225°
(C) Hohenems Dornbirn 21.6 NM
LOIH SSE 156°
4 Amlikon 22.6 NM
LSPA WSW 252°
(U) Saulgau 24.7 NM
EDTU N 359°
(C) Lommis 25.9 NM
LSZT WSW 246°
(C) LEUTKIRCH UNTERZEIL 26.7 NM
EDNL ENE 60°
VFR Chart
Flight Planning at SkyVector.com